Location: Beuerbach
(48.1459°N, 10.9174°E)
Time: 10:03:59
(UTC+00:00)

SL-8 R/B - Pass Details

Date: 23 May 2024
Orbit: 652 x 662 km, 48.4° (Epoch: 15 June)

Event Time Altitude Azimuth Distance (km) Brightness Sun altitude
Rises 00:58:49 0° 285° (WNW) 2,977 7.0 -17.3°
Reaches altitude 10° 01:01:15 10° 279° (W) 2,065 6.1 -17.1°
Maximum altitude 01:05:45 43° 209° (SSW) 922 3.9 -16.7°
Drops below altitude 10° 01:10:15 10° 138° (SE) 2,064 6.0 -16.4°
Sets 01:12:40 0° 132° (SE) 2,975 6.9 -16.2°
